Time,TemperatureF,DewpointF,PressureIn,WindDirection,WindDirectionDegrees,WindSpeedMPH,WindSpeedGustMPH,Humidity,HourlyPrecipIn,Conditions,Clouds,dailyrainin,SoftwareType,DateUTC
2013-11-09 00:01:00,32.2,10.7,30.06,ESE,103,0.0,0.0,40,0.00,,---,0.00,VWS V14.01,2013-11-09 08:01:00,
2013-11-09 00:06:00,32.2,10.7,30.06,ESE,103,0.0,0.0,40,0.00,,---,0.00,VWS V14.01,2013-11-09 08:06:00,
2013-11-09 00:11:00,32.2,10.7,30.06,ESE,103,0.0,0.0,40,0.00,,---,0.00,VWS V14.01,2013-11-09 08:11:00,
2013-11-09 00:17:00,31.8,10.4,30.06,ESE,103,0.0,0.0,40,0.00,,---,0.00,VWS V14.01,2013-11-09 08:17:00,
2013-11-09 00:23:00,31.6,10.2,30.06,ESE,103,0.0,0.0,40,0.00,,---,0.00,VWS V14.01,2013-11-09 08:23:00,
2013-11-09 00:29:00,31.5,10.1,30.06,ESE,103,0.0,0.0,40,0.00,,---,0.00,VWS V14.01,2013-11-09 08:29:00,
2013-11-09 00:34:00,31.5,10.1,30.06,ESE,103,0.0,0.0,40,0.00,,---,0.00,VWS V14.01,2013-11-09 08:34:00,
2013-11-09 00:40:00,31.3,9.9,30.06,ESE,103,0.0,0.0,40,0.00,,---,0.00,VWS V14.01,2013-11-09 08:40:00,
2013-11-09 00:46:00,31.1,9.8,30.06,ESE,103,0.0,0.0,40,0.00,,---,0.00,VWS V14.01,2013-11-09 08:46:00,
2013-11-09 00:51:00,30.9,9.6,30.06,ESE,103,0.0,0.0,40,0.00,,---,0.00,VWS V14.01,2013-11-09 08:51:00,
2013-11-09 00:57:00,30.4,9.1,30.06,ESE,103,0.0,0.0,40,0.00,,---,0.00,VWS V14.01,2013-11-09 08:57:00,
2013-11-09 01:02:00,30.2,8.9,30.06,ESE,103,0.0,0.0,40,0.00,,---,0.00,VWS V14.01,2013-11-09 09:02:00,
2013-11-09 01:07:00,30.2,8.9,30.06,ESE,103,0.0,0.0,40,0.00,,---,0.00,VWS V14.01,2013-11-09 09:07:00,
2013-11-09 01:13:00,30.2,8.9,30.06,ESE,103,0.0,0.0,40,0.00,,---,0.00,VWS V14.01,2013-11-09 09:13:00,
2013-11-09 01:18:00,30.2,8.9,30.06,ESE,103,0.0,0.0,40,0.00,,---,0.00,VWS V14.01,2013-11-09 09:18:00,
2013-11-09 01:23:00,30.0,8.8,30.06,ESE,103,0.0,0.0,40,0.00,,---,0.00,VWS V14.01,2013-11-09 09:23:00,
2013-11-09 01:29:00,29.8,10.5,30.06,ESE,103,0.0,0.0,44,0.00,,---,0.00,VWS V14.01,2013-11-09 09:29:00,
2013-11-09 01:34:00,29.8,10.5,30.06,ESE,103,0.0,0.0,44,0.00,,---,0.00,VWS V14.01,2013-11-09 09:34:00,
2013-11-09 01:40:00,29.7,10.3,30.06,ESE,103,0.0,0.0,44,0.00,,---,0.00,VWS V14.01,2013-11-09 09:40:00,
2013-11-09 01:45:00,29.5,10.1,30.06,ESE,103,0.0,0.0,44,0.00,,---,0.00,VWS V14.01,2013-11-09 09:45:00,
2013-11-09 01:51:00,29.3,10.0,30.06,ESE,103,0.0,0.0,44,0.00,,---,0.00,VWS V14.01,2013-11-09 09:51:00,
2013-11-09 01:56:00,29.3,10.0,30.06,ESE,103,0.0,0.0,44,0.00,,---,0.00,VWS V14.01,2013-11-09 09:56:00,
2013-11-09 02:02:00,29.3,10.0,30.06,ESE,103,0.0,0.0,44,0.00,,---,0.00,VWS V14.01,2013-11-09 10:02:00,
2013-11-09 02:08:00,29.3,10.0,30.06,ESE,103,0.0,0.0,44,0.00,,---,0.00,VWS V14.01,2013-11-09 10:08:00,
2013-11-09 02:14:00,29.5,10.1,30.06,ESE,103,0.0,0.0,44,0.00,,---,0.00,VWS V14.01,2013-11-09 10:14:00,
2013-11-09 02:20:00,29.5,10.1,30.06,ESE,103,0.0,0.0,44,0.00,,---,0.00,VWS V14.01,2013-11-09 10:20:00,
2013-11-09 02:25:00,29.5,10.1,30.06,ESE,103,0.0,0.0,44,0.00,,---,0.00,VWS V14.01,2013-11-09 10:25:00,
2013-11-09 02:31:00,29.1,9.8,30.06,ESE,103,0.0,0.0,44,0.00,,---,0.00,VWS V14.01,2013-11-09 10:31:00,
2013-11-09 02:36:00,28.9,9.6,30.06,ESE,103,0.0,0.0,44,0.00,,---,0.00,VWS V14.01,2013-11-09 10:36:00,
2013-11-09 02:42:00,28.6,11.9,30.06,ESE,103,0.0,0.0,49,0.00,,---,0.00,VWS V14.01,2013-11-09 10:42:00,
2013-11-09 02:47:00,28.6,11.9,30.06,ESE,103,0.0,0.0,49,0.00,,---,0.00,VWS V14.01,2013-11-09 10:47:00,
2013-11-09 02:52:00,28.6,11.9,30.06,ESE,103,0.0,0.0,49,0.00,,---,0.00,VWS V14.01,2013-11-09 10:52:00,
2013-11-09 02:58:00,28.2,11.5,30.06,ESE,103,0.0,0.0,49,0.00,,---,0.00,VWS V14.01,2013-11-09 10:58:00,
2013-11-09 03:03:00,28.2,11.5,30.06,ESE,103,0.0,0.0,49,0.00,,---,0.00,VWS V14.01,2013-11-09 11:03:00,
2013-11-09 03:09:00,28.2,11.5,30.06,ESE,103,0.0,0.0,49,0.00,,---,0.00,VWS V14.01,2013-11-09 11:09:00,
2013-11-09 03:15:00,28.4,11.7,30.06,ESE,103,0.0,0.0,49,0.00,,---,0.00,VWS V14.01,2013-11-09 11:15:00,
2013-11-09 03:20:00,28.6,11.9,30.06,ESE,103,0.0,0.0,49,0.00,,---,0.00,VWS V14.01,2013-11-09 11:20:00,
2013-11-09 03:25:00,28.6,11.9,30.06,ESE,103,0.0,0.0,49,0.00,,---,0.00,VWS V14.01,2013-11-09 11:25:00,
2013-11-09 03:31:00,28.2,11.5,30.06,ESE,103,0.0,0.0,49,0.00,,---,0.00,VWS V14.01,2013-11-09 11:31:00,
2013-11-09 03:36:00,28.0,11.4,30.06,ESE,103,0.0,0.0,49,0.00,,---,0.00,VWS V14.01,2013-11-09 11:36:00,
2013-11-09 03:41:00,28.2,13.8,30.06,ESE,103,0.0,0.0,54,0.00,,---,0.00,VWS V14.01,2013-11-09 11:41:00,
2013-11-09 03:47:00,28.2,13.8,30.06,ESE,103,0.0,0.0,54,0.00,,---,0.00,VWS V14.01,2013-11-09 11:47:00,
2013-11-09 03:52:00,28.2,13.8,30.06,ESE,103,0.0,0.0,54,0.00,,---,0.00,VWS V14.01,2013-11-09 11:52:00,
2013-11-09 03:57:00,27.9,13.5,30.06,ESE,103,0.0,0.0,54,0.00,,---,0.00,VWS V14.01,2013-11-09 11:57:00,
2013-11-09 04:03:00,27.9,13.5,30.06,ESE,103,0.0,0.0,54,0.00,,---,0.00,VWS V14.01,2013-11-09 12:03:00,
2013-11-09 04:09:00,27.5,13.1,30.06,ESE,103,0.0,0.0,54,0.00,,---,0.00,VWS V14.01,2013-11-09 12:09:00,
2013-11-09 04:15:00,27.5,13.1,30.06,ESE,103,0.0,0.0,54,0.00,,---,0.00,VWS V14.01,2013-11-09 12:15:00,
2013-11-09 04:20:00,27.5,13.1,30.06,ESE,103,0.0,0.0,54,0.00,,---,0.00,VWS V14.01,2013-11-09 12:20:00,
2013-11-09 04:26:00,27.5,13.1,30.06,ESE,103,0.0,0.0,54,0.00,,---,0.00,VWS V14.01,2013-11-09 12:26:00,
2013-11-09 04:31:00,27.5,13.1,30.06,ESE,103,0.0,0.0,54,0.00,,---,0.00,VWS V14.01,2013-11-09 12:31:00,
2013-11-09 04:37:00,27.5,13.1,30.06,ESE,103,0.0,0.0,54,0.00,,---,0.00,VWS V14.01,2013-11-09 12:37:00,
2013-11-09 04:42:00,27.7,13.3,30.06,ESE,103,0.0,0.0,54,0.00,,---,0.00,VWS V14.01,2013-11-09 12:42:00,
2013-11-09 04:48:00,27.7,13.3,30.06,ESE,103,0.0,0.0,54,0.00,,---,0.00,VWS V14.01,2013-11-09 12:48:00,
2013-11-09 04:53:00,27.5,13.1,30.06,ESE,103,0.0,0.0,54,0.00,,---,0.00,VWS V14.01,2013-11-09 12:53:00,
2013-11-09 04:59:00,27.3,13.0,30.06,ESE,103,0.0,0.0,54,0.00,,---,0.00,VWS V14.01,2013-11-09 12:59:00,
2013-11-09 05:05:00,27.1,12.8,30.09,ESE,103,0.0,0.0,54,0.00,,---,0.00,VWS V14.01,2013-11-09 13:05:00,
2013-11-09 05:11:00,27.0,12.6,30.09,ESE,122,0.0,0.0,54,0.00,,---,0.00,VWS V14.01,2013-11-09 13:11:00,
2013-11-09 05:17:00,27.0,12.6,30.09,ESE,122,0.0,0.0,54,0.00,,---,0.00,VWS V14.01,2013-11-09 13:17:00,
2013-11-09 05:22:00,27.0,12.6,30.09,ESE,122,0.0,0.0,54,0.00,,---,0.00,VWS V14.01,2013-11-09 13:22:00,
2013-11-09 05:27:00,27.0,12.6,30.09,ESE,122,0.0,0.0,54,0.00,,---,0.00,VWS V14.01,2013-11-09 13:27:00,
2013-11-09 05:32:00,27.0,12.6,30.09,ESE,122,0.0,0.0,54,0.00,,---,0.00,VWS V14.01,2013-11-09 13:32:00,
2013-11-09 05:38:00,27.1,12.8,30.09,SE,138,0.0,0.0,54,0.00,,---,0.00,VWS V14.01,2013-11-09 13:38:00,
2013-11-09 05:43:00,27.1,12.8,30.09,SE,138,0.0,0.0,54,0.00,,---,0.00,VWS V14.01,2013-11-09 13:43:00,
2013-11-09 05:48:00,27.0,12.6,30.09,SE,138,0.0,0.0,54,0.00,,---,0.00,VWS V14.01,2013-11-09 13:48:00,
2013-11-09 05:53:00,26.8,12.5,30.09,SE,138,0.0,0.0,54,0.00,,---,0.00,VWS V14.01,2013-11-09 13:53:00,
2013-11-09 05:59:00,27.0,12.6,30.09,SE,138,0.0,0.0,54,0.00,,---,0.00,VWS V14.01,2013-11-09 13:59:00,
2013-11-09 06:05:00,26.8,12.5,30.09,SE,138,0.0,0.0,54,0.00,,---,0.00,VWS V14.01,2013-11-09 14:05:00,
2013-11-09 06:11:00,26.8,12.5,30.09,SE,138,0.0,0.0,54,0.00,,---,0.00,VWS V14.01,2013-11-09 14:11:00,
2013-11-09 06:17:00,27.0,12.6,30.09,SE,138,0.0,0.0,54,0.00,,---,0.00,VWS V14.01,2013-11-09 14:17:00,
2013-11-09 06:22:00,27.0,13.4,30.09,SE,138,0.0,0.0,56,0.00,,---,0.00,VWS V14.01,2013-11-09 14:22:00,
2013-11-09 06:28:00,27.0,13.4,30.09,SE,138,0.0,0.0,56,0.00,,---,0.00,VWS V14.01,2013-11-09 14:28:00,
2013-11-09 06:34:00,27.1,13.5,30.09,SE,138,0.0,0.0,56,0.00,,---,0.00,VWS V14.01,2013-11-09 14:34:00,
2013-11-09 06:40:00,27.5,13.9,30.09,SSE,162,4.0,4.0,56,0.00,,---,0.00,VWS V14.01,2013-11-09 14:40:00,
2013-11-09 06:45:00,27.7,14.0,30.09,SSE,162,3.1,3.1,56,0.00,,---,0.00,VWS V14.01,2013-11-09 14:45:00,
2013-11-09 06:51:00,28.0,14.4,30.09,SE,145,0.0,0.0,56,0.00,,---,0.00,VWS V14.01,2013-11-09 14:51:00,
2013-11-09 06:57:00,28.4,14.7,30.09,SE,145,0.0,0.0,56,0.00,,---,0.00,VWS V14.01,2013-11-09 14:57:00,
2013-11-09 07:03:00,29.5,15.7,30.09,SE,145,0.0,0.0,56,0.00,,---,0.00,VWS V14.01,2013-11-09 15:03:00,
2013-11-09 07:09:00,30.7,16.2,30.09,SSE,164,0.0,0.0,54,0.00,,---,0.00,VWS V14.01,2013-11-09 15:09:00,
2013-11-09 07:14:00,32.0,18.1,30.09,SSE,164,0.0,0.0,56,0.00,,---,0.00,VWS V14.01,2013-11-09 15:14:00,
2013-11-09 07:20:00,33.4,19.4,30.09,South,177,3.6,4.0,56,0.00,,---,0.00,VWS V14.01,2013-11-09 15:20:00,
2013-11-09 07:25:00,35.2,21.1,30.09,ESE,123,3.1,3.1,56,0.00,,---,0.00,VWS V14.01,2013-11-09 15:25:00,
2013-11-09 07:31:00,37.2,23.0,30.09,WNW,283,0.0,0.0,56,0.00,,---,0.00,VWS V14.01,2013-11-09 15:31:00,
2013-11-09 07:36:00,39.4,24.2,30.09,SSE,159,5.4,6.3,54,0.00,,---,0.00,VWS V14.01,2013-11-09 15:36:00,
2013-11-09 07:41:00,41.4,25.3,30.09,East,82,6.3,6.3,52,0.00,,---,0.00,VWS V14.01,2013-11-09 15:41:00,
2013-11-09 07:47:00,45.1,28.0,30.09,ENE,65,6.3,8.3,51,0.00,,---,0.00,VWS V14.01,2013-11-09 15:47:00,
2013-11-09 07:52:00,47.7,29.5,30.09,East,86,5.4,7.6,49,0.00,,---,0.00,VWS V14.01,2013-11-09 15:52:00,
2013-11-09 07:58:00,49.5,30.2,30.09,East,80,3.1,5.8,47,0.00,,---,0.00,VWS V14.01,2013-11-09 15:58:00,
2013-11-09 08:03:00,50.7,30.4,30.09,ENE,75,6.3,6.3,46,0.00,,---,0.00,VWS V14.01,2013-11-09 16:03:00,
2013-11-09 08:09:00,52.5,32.1,30.12,ENE,58,4.0,4.0,46,0.00,,---,0.00,VWS V14.01,2013-11-09 16:09:00,
2013-11-09 08:14:00,53.6,30.0,30.12,East,96,2.7,4.9,40,0.00,,---,0.00,VWS V14.01,2013-11-09 16:14:00,
2013-11-09 08:20:00,55.4,30.6,30.12,ESE,112,2.7,2.7,38,0.00,,---,0.00,VWS V14.01,2013-11-09 16:20:00,
2013-11-09 08:25:00,56.8,29.5,30.12,East,92,5.8,5.8,35,0.00,,---,0.00,VWS V14.01,2013-11-09 16:25:00,
2013-11-09 08:31:00,59.2,30.3,30.12,NE,50,8.1,8.1,33,0.00,,---,0.00,VWS V14.01,2013-11-09 16:31:00,
2013-11-09 08:37:00,61.2,32.0,30.12,NE,41,6.3,8.7,33,0.00,,---,0.00,VWS V14.01,2013-11-09 16:37:00,
2013-11-09 08:42:00,63.0,29.4,30.12,NE,55,6.3,14.1,28,0.00,,---,0.00,VWS V14.01,2013-11-09 16:42:00,
2013-11-09 08:48:00,64.0,30.3,30.12,ENE,72,6.3,7.2,28,0.00,,---,0.00,VWS V14.01,2013-11-09 16:48:00,
2013-11-09 08:53:00,65.1,29.6,30.09,NE,52,11.0,11.9,26,0.00,,---,0.00,VWS V14.01,2013-11-09 16:53:00,
2013-11-09 08:58:00,66.0,30.4,30.09,ENE,67,5.8,7.2,26,0.00,,---,0.00,VWS V14.01,2013-11-09 16:58:00,
2013-11-09 09:03:00,66.7,31.0,30.09,ENE,64,4.5,8.7,26,0.00,,---,0.00,VWS V14.01,2013-11-09 17:03:00,
2013-11-09 09:09:00,67.1,31.3,30.09,ENE,59,8.1,8.1,26,0.00,,---,0.00,VWS V14.01,2013-11-09 17:09:00,
2013-11-09 09:14:00,67.6,31.8,30.09,NNE,27,3.1,7.6,26,0.00,,---,0.00,VWS V14.01,2013-11-09 17:14:00,
2013-11-09 09:19:00,68.2,32.3,30.12,NE,51,6.3,6.3,26,0.00,,---,0.00,VWS V14.01,2013-11-09 17:19:00,
2013-11-09 09:24:00,68.5,32.6,30.12,ENE,71,3.6,4.9,26,0.00,,---,0.00,VWS V14.01,2013-11-09 17:24:00,
2013-11-09 09:30:00,69.1,33.0,30.12,SE,127,0.0,3.1,26,0.00,,---,0.00,VWS V14.01,2013-11-09 17:30:00,
2013-11-09 09:36:00,69.3,33.2,30.09,SSE,148,0.0,0.0,26,0.00,,---,0.00,VWS V14.01,2013-11-09 17:36:00,
2013-11-09 09:41:00,69.4,33.3,30.09,SSE,148,0.0,0.0,26,0.00,,---,0.00,VWS V14.01,2013-11-09 17:41:00,
2013-11-09 09:47:00,69.8,31.9,30.09,North,9,3.6,4.5,24,0.00,,---,0.00,VWS V14.01,2013-11-09 17:47:00,
2013-11-09 09:52:00,70.0,32.1,30.09,WNW,286,3.1,3.1,24,0.00,,---,0.00,VWS V14.01,2013-11-09 17:52:00,
2013-11-09 09:57:00,70.5,32.5,30.09,WSW,237,8.3,9.2,24,0.00,,---,0.00,VWS V14.01,2013-11-09 17:57:00,
2013-11-09 10:03:00,70.5,32.5,30.09,WSW,253,8.7,8.7,24,0.00,,---,0.00,VWS V14.01,2013-11-09 18:03:00,
2013-11-09 10:08:00,70.5,32.5,30.09,WSW,254,8.7,8.7,24,0.00,,---,0.00,VWS V14.01,2013-11-09 18:08:00,
2013-11-09 10:14:00,70.3,32.4,30.09,WSW,250,8.3,11.0,24,0.00,,---,0.00,VWS V14.01,2013-11-09 18:14:00,
2013-11-09 10:19:00,70.2,32.2,30.09,West,270,8.3,10.1,24,0.00,,---,0.00,VWS V14.01,2013-11-09 18:19:00,
2013-11-09 10:25:00,70.3,32.4,30.12,West,262,11.0,11.0,24,0.00,,---,0.00,VWS V14.01,2013-11-09 18:25:00,
2013-11-09 10:30:00,70.2,32.2,30.12,West,263,9.6,11.0,24,0.00,,---,0.00,VWS V14.01,2013-11-09 18:30:00,
2013-11-09 10:35:00,70.3,32.4,30.09,SW,226,10.5,12.8,24,0.00,,---,0.00,VWS V14.01,2013-11-09 18:35:00,
2013-11-09 10:41:00,70.7,32.7,30.09,West,263,8.7,11.0,24,0.00,,---,0.00,VWS V14.01,2013-11-09 18:41:00,
2013-11-09 10:46:00,70.7,32.7,30.09,West,264,8.1,8.7,24,0.00,,---,0.00,VWS V14.01,2013-11-09 18:46:00,
2013-11-09 10:52:00,70.2,32.2,30.09,West,273,8.1,8.1,24,0.00,,---,0.00,VWS V14.01,2013-11-09 18:52:00,
2013-11-09 10:57:00,70.0,32.1,30.09,West,271,6.7,8.1,24,0.00,,---,0.00,VWS V14.01,2013-11-09 18:57:00,
2013-11-09 11:03:00,70.2,32.2,30.09,WSW,253,10.5,12.3,24,0.00,,---,0.00,VWS V14.01,2013-11-09 19:03:00,
2013-11-09 11:08:00,70.3,32.4,30.09,West,260,9.6,13.2,24,0.00,,---,0.00,VWS V14.01,2013-11-09 19:08:00,
2013-11-09 11:14:00,70.5,32.5,30.09,WSW,241,8.1,10.1,24,0.00,,---,0.00,VWS V14.01,2013-11-09 19:14:00,
2013-11-09 11:19:00,70.9,32.8,30.09,WSW,246,8.7,8.7,24,0.00,,---,0.00,VWS V14.01,2013-11-09 19:19:00,
2013-11-09 11:25:00,70.9,32.8,30.09,West,266,4.0,8.7,24,0.00,,---,0.00,VWS V14.01,2013-11-09 19:25:00,
2013-11-09 11:30:00,71.1,33.0,30.09,WNW,289,6.3,7.6,24,0.00,,---,0.00,VWS V14.01,2013-11-09 19:30:00,
2013-11-09 11:36:00,71.2,33.1,30.09,SSW,192,8.1,11.0,24,0.00,,---,0.00,VWS V14.01,2013-11-09 19:36:00,
2013-11-09 11:41:00,71.2,33.1,30.09,West,268,6.3,6.3,24,0.00,,---,0.00,VWS V14.01,2013-11-09 19:41:00,
2013-11-09 11:47:00,71.1,33.0,30.09,WNW,296,8.3,10.5,24,0.00,,---,0.00,VWS V14.01,2013-11-09 19:47:00,
2013-11-09 11:52:00,71.6,33.4,30.09,SW,227,7.6,10.5,24,0.00,,---,0.00,VWS V14.01,2013-11-09 19:52:00,
2013-11-09 11:58:00,72.1,33.9,30.09,SW,234,5.8,9.6,24,0.00,,---,0.00,VWS V14.01,2013-11-09 19:58:00,
2013-11-09 12:03:00,72.0,33.8,30.09,WSW,238,11.9,12.8,24,0.00,,---,0.00,VWS V14.01,2013-11-09 20:03:00,
2013-11-09 12:09:00,72.3,34.0,30.09,SW,221,4.0,8.3,24,0.00,,---,0.00,VWS V14.01,2013-11-09 20:09:00,
2013-11-09 12:15:00,72.3,34.0,30.09,West,278,6.3,10.5,24,0.00,,---,0.00,VWS V14.01,2013-11-09 20:15:00,
2013-11-09 12:21:00,72.0,33.8,30.09,West,264,10.5,11.0,24,0.00,,---,0.00,VWS V14.01,2013-11-09 20:21:00,
2013-11-09 12:27:00,72.1,33.9,30.09,West,280,11.0,12.3,24,0.00,,---,0.00,VWS V14.01,2013-11-09 20:27:00,
2013-11-09 12:33:00,72.3,34.0,30.09,West,279,10.5,10.5,24,0.00,,---,0.00,VWS V14.01,2013-11-09 20:33:00,
2013-11-09 12:39:00,72.0,33.8,30.06,WNW,296,7.6,10.1,24,0.00,,---,0.00,VWS V14.01,2013-11-09 20:39:00,
2013-11-09 12:45:00,72.1,33.9,30.06,WSW,257,10.5,13.2,24,0.00,,---,0.00,VWS V14.01,2013-11-09 20:45:00,
2013-11-09 12:51:00,72.5,34.2,30.06,WNW,298,8.1,12.8,24,0.00,,---,0.00,VWS V14.01,2013-11-09 20:51:00,
2013-11-09 12:56:00,72.3,34.0,30.06,West,274,7.6,11.0,24,0.00,,---,0.00,VWS V14.01,2013-11-09 20:56:00,
2013-11-09 13:02:00,72.3,34.0,30.06,WNW,300,8.1,8.3,24,0.00,,---,0.00,VWS V14.01,2013-11-09 21:02:00,
2013-11-09 13:08:00,72.5,34.2,30.06,WSW,253,11.0,11.0,24,0.00,,---,0.00,VWS V14.01,2013-11-09 21:08:00,
2013-11-09 13:14:00,72.5,34.2,30.06,WSW,246,8.1,9.2,24,0.00,,---,0.00,VWS V14.01,2013-11-09 21:14:00,
2013-11-09 13:19:00,72.1,33.9,30.06,West,269,11.0,11.4,24,0.00,,---,0.00,VWS V14.01,2013-11-09 21:19:00,
2013-11-09 13:25:00,72.3,34.0,30.06,WNW,300,7.6,8.7,24,0.00,,---,0.00,VWS V14.01,2013-11-09 21:25:00,
2013-11-09 13:31:00,71.6,33.4,30.06,WNW,296,7.6,10.1,24,0.00,,---,0.00,VWS V14.01,2013-11-09 21:31:00,
2013-11-09 13:36:00,71.6,33.4,30.06,WNW,290,10.1,11.0,24,0.00,,---,0.00,VWS V14.01,2013-11-09 21:36:00,
2013-11-09 13:41:00,71.6,33.4,30.06,SW,231,4.9,8.1,24,0.00,,---,0.00,VWS V14.01,2013-11-09 21:41:00,
2013-11-09 13:47:00,71.8,33.6,30.06,West,268,8.7,11.9,24,0.00,,---,0.00,VWS V14.01,2013-11-09 21:47:00,
2013-11-09 13:53:00,71.4,33.3,30.06,WSW,255,8.3,8.3,24,0.00,,---,0.00,VWS V14.01,2013-11-09 21:53:00,
2013-11-09 13:58:00,71.6,33.4,30.06,WSW,258,8.3,8.7,24,0.00,,---,0.00,VWS V14.01,2013-11-09 21:58:00,
2013-11-09 14:04:00,71.4,33.3,30.06,WSW,257,9.2,11.0,24,0.00,,---,0.00,VWS V14.01,2013-11-09 22:04:00,
2013-11-09 14:09:00,71.2,33.1,30.06,WNW,285,8.3,11.0,24,0.00,,---,0.00,VWS V14.01,2013-11-09 22:09:00,
2013-11-09 14:15:00,71.2,33.1,30.06,WSW,255,9.6,9.6,24,0.00,,---,0.00,VWS V14.01,2013-11-09 22:15:00,
2013-11-09 14:20:00,71.2,33.1,30.06,West,261,11.0,11.0,24,0.00,,---,0.00,VWS V14.01,2013-11-09 22:20:00,
2013-11-09 14:25:00,71.1,33.0,30.06,West,279,7.6,10.1,24,0.00,,---,0.00,VWS V14.01,2013-11-09 22:25:00,
2013-11-09 14:31:00,70.9,32.8,30.06,WSW,249,8.7,10.1,24,0.00,,---,0.00,VWS V14.01,2013-11-09 22:31:00,
2013-11-09 14:37:00,70.7,32.7,30.06,WSW,252,10.1,10.5,24,0.00,,---,0.00,VWS V14.01,2013-11-09 22:37:00,
2013-11-09 14:42:00,70.3,32.4,30.06,WSW,250,9.6,9.6,24,0.00,,---,0.00,VWS V14.01,2013-11-09 22:42:00,
2013-11-09 14:47:00,70.2,32.2,30.06,West,268,9.2,13.2,24,0.00,,---,0.00,VWS V14.01,2013-11-09 22:47:00,
2013-11-09 14:53:00,69.8,31.9,30.06,WSW,243,5.8,10.5,24,0.00,,---,0.00,VWS V14.01,2013-11-09 22:53:00,
2013-11-09 14:59:00,69.6,33.5,30.06,West,261,12.3,12.8,26,0.00,,---,0.00,VWS V14.01,2013-11-09 22:59:00,
2013-11-09 15:04:00,69.3,33.2,30.06,WNW,298,11.0,11.0,26,0.00,,---,0.00,VWS V14.01,2013-11-09 23:04:00,
2013-11-09 15:10:00,68.9,32.9,30.06,WNW,295,8.1,9.2,26,0.00,,---,0.00,VWS V14.01,2013-11-09 23:10:00,
2013-11-09 15:16:00,68.5,32.6,30.06,West,278,5.4,10.1,26,0.00,,---,0.00,VWS V14.01,2013-11-09 23:16:00,
2013-11-09 15:21:00,68.4,32.4,30.06,West,264,11.4,11.4,26,0.00,,---,0.00,VWS V14.01,2013-11-09 23:21:00,
2013-11-09 15:26:00,68.0,32.1,30.06,WNW,283,8.7,10.5,26,0.00,,---,0.00,VWS V14.01,2013-11-09 23:26:00,
2013-11-09 15:32:00,67.6,31.8,30.06,West,278,5.8,9.6,26,0.00,,---,0.00,VWS V14.01,2013-11-09 23:32:00,
2013-11-09 15:37:00,67.6,31.8,30.06,WNW,302,5.8,8.3,26,0.00,,---,0.00,VWS V14.01,2013-11-09 23:37:00,
2013-11-09 15:43:00,67.3,31.5,30.06,West,268,8.7,9.6,26,0.00,,---,0.00,VWS V14.01,2013-11-09 23:43:00,
2013-11-09 15:48:00,67.1,31.3,30.06,West,262,11.0,11.0,26,0.00,,---,0.00,VWS V14.01,2013-11-09 23:48:00,
2013-11-09 15:54:00,66.7,31.0,30.06,West,275,8.1,8.3,26,0.00,,---,0.00,VWS V14.01,2013-11-09 23:54:00,
2013-11-09 16:00:00,66.4,30.7,30.06,WNW,303,5.8,8.3,26,0.00,,---,0.00,VWS V14.01,2013-11-10 00:00:00,
2013-11-09 16:05:00,66.0,30.4,30.06,WNW,285,4.0,5.8,26,0.00,,---,0.00,VWS V14.01,2013-11-10 00:05:00,
2013-11-09 16:11:00,65.7,30.1,30.06,West,275,5.4,6.3,26,0.00,,---,0.00,VWS V14.01,2013-11-10 00:11:00,
2013-11-09 16:16:00,65.1,29.6,30.06,WNW,298,3.6,5.4,26,0.00,,---,0.00,VWS V14.01,2013-11-10 00:16:00,
2013-11-09 16:22:00,64.6,29.2,30.06,WNW,300,2.7,4.0,26,0.00,,---,0.00,VWS V14.01,2013-11-10 00:22:00,
2013-11-09 16:27:00,64.0,30.3,30.06,WNW,300,3.6,4.0,28,0.00,,---,0.00,VWS V14.01,2013-11-10 00:27:00,
2013-11-09 16:32:00,63.5,29.8,30.06,WNW,292,2.7,3.1,28,0.00,,---,0.00,VWS V14.01,2013-11-10 00:32:00,
2013-11-09 16:38:00,62.6,29.1,30.06,West,270,3.1,3.1,28,0.00,,---,0.00,VWS V14.01,2013-11-10 00:38:00,
2013-11-09 16:43:00,61.9,28.4,30.06,West,270,3.1,3.6,28,0.00,,---,0.00,VWS V14.01,2013-11-10 00:43:00,
2013-11-09 16:48:00,61.0,27.7,30.06,West,270,3.1,3.6,28,0.00,,---,0.00,VWS V14.01,2013-11-10 00:48:00,
2013-11-09 16:53:00,60.4,28.7,30.06,West,270,0.0,0.0,30,0.00,,---,0.00,VWS V14.01,2013-11-10 00:53:00,
2013-11-09 16:58:00,59.7,28.0,30.06,West,270,0.0,0.0,30,0.00,,---,0.00,VWS V14.01,2013-11-10 00:58:00,
2013-11-09 17:03:00,58.8,27.3,30.06,West,270,0.0,0.0,30,0.00,,---,0.00,VWS V14.01,2013-11-10 01:03:00,
2013-11-09 17:09:00,57.9,26.5,30.06,SE,137,4.0,4.9,30,0.00,,---,0.00,VWS V14.01,2013-11-10 01:09:00,
2013-11-09 17:15:00,56.5,25.2,30.06,SSE,147,4.0,4.0,30,0.00,,---,0.00,VWS V14.01,2013-11-10 01:15:00,
2013-11-09 17:20:00,55.2,25.5,30.09,ESE,111,3.1,3.1,32,0.00,,---,0.00,VWS V14.01,2013-11-10 01:20:00,
2013-11-09 17:26:00,53.8,24.3,30.09,ENE,63,4.0,4.9,32,0.00,,---,0.00,VWS V14.01,2013-11-10 01:26:00,
2013-11-09 17:31:00,53.1,23.6,30.09,ENE,63,0.0,0.0,32,0.00,,---,0.00,VWS V14.01,2013-11-10 01:31:00,
2013-11-09 17:36:00,52.0,22.7,30.09,ENE,63,0.0,0.0,32,0.00,,---,0.00,VWS V14.01,2013-11-10 01:36:00,
2013-11-09 17:42:00,51.1,23.2,30.09,ENE,63,0.0,0.0,33,0.00,,---,0.00,VWS V14.01,2013-11-10 01:42:00,
2013-11-09 17:48:00,50.2,22.4,30.09,ENE,63,0.0,0.0,33,0.00,,---,0.00,VWS V14.01,2013-11-10 01:48:00,
2013-11-09 17:54:00,49.5,21.8,30.09,ENE,63,0.0,0.0,33,0.00,,---,0.00,VWS V14.01,2013-11-10 01:54:00,
2013-11-09 18:00:00,48.9,21.3,30.09,ENE,63,0.0,0.0,33,0.00,,---,0.00,VWS V14.01,2013-11-10 02:00:00,
2013-11-09 18:05:00,48.6,21.0,30.09,ENE,63,0.0,0.0,33,0.00,,---,0.00,VWS V14.01,2013-11-10 02:05:00,
2013-11-09 18:11:00,47.5,20.0,30.09,ENE,63,0.0,0.0,33,0.00,,---,0.00,VWS V14.01,2013-11-10 02:11:00,
2013-11-09 18:17:00,47.1,19.7,30.09,ENE,71,2.7,4.0,33,0.00,,---,0.00,VWS V14.01,2013-11-10 02:17:00,
2013-11-09 18:23:00,46.4,19.0,30.09,ENE,59,4.9,5.4,33,0.00,,---,0.00,VWS V14.01,2013-11-10 02:23:00,
2013-11-09 18:28:00,46.4,19.0,30.09,ESE,113,0.0,2.2,33,0.00,,---,0.00,VWS V14.01,2013-11-10 02:28:00,
2013-11-09 18:33:00,46.0,19.9,30.09,ESE,113,0.0,0.0,35,0.00,,---,0.00,VWS V14.01,2013-11-10 02:33:00,
2013-11-09 18:39:00,45.3,19.3,30.12,ESE,113,0.0,0.0,35,0.00,,---,0.00,VWS V14.01,2013-11-10 02:39:00,
2013-11-09 18:45:00,44.6,18.7,30.12,ESE,113,0.0,0.0,35,0.00,,---,0.00,VWS V14.01,2013-11-10 02:45:00,
2013-11-09 18:50:00,44.2,18.3,30.12,ESE,107,0.0,0.0,35,0.00,,---,0.00,VWS V14.01,2013-11-10 02:50:00,
2013-11-09 18:55:00,44.1,18.2,30.12,ESE,107,0.0,0.0,35,0.00,,---,0.00,VWS V14.01,2013-11-10 02:55:00,
2013-11-09 19:01:00,43.7,17.9,30.12,ESE,106,0.0,0.0,35,0.00,,---,0.00,VWS V14.01,2013-11-10 03:01:00,
2013-11-09 19:06:00,42.3,17.7,30.12,ESE,106,0.0,0.0,37,0.00,,---,0.00,VWS V14.01,2013-11-10 03:06:00,
2013-11-09 19:12:00,42.1,17.5,30.12,ESE,106,0.0,0.0,37,0.00,,---,0.00,VWS V14.01,2013-11-10 03:12:00,
2013-11-09 19:18:00,41.7,17.2,30.12,ESE,106,0.0,0.0,37,0.00,,---,0.00,VWS V14.01,2013-11-10 03:18:00,
2013-11-09 19:23:00,41.7,17.2,30.12,South,178,0.0,0.0,37,0.00,,---,0.00,VWS V14.01,2013-11-10 03:23:00,
2013-11-09 19:29:00,41.5,17.1,30.12,SSE,148,3.6,4.0,37,0.00,,---,0.00,VWS V14.01,2013-11-10 03:29:00,
2013-11-09 19:35:00,40.6,16.3,30.12,SE,133,0.0,0.0,37,0.00,,---,0.00,VWS V14.01,2013-11-10 03:35:00,
2013-11-09 19:41:00,40.3,12.4,30.12,SE,133,0.0,0.0,32,0.00,,---,0.00,VWS V14.01,2013-11-10 03:41:00,
2013-11-09 19:46:00,40.1,12.3,30.12,SE,133,0.0,0.0,32,0.00,,---,0.00,VWS V14.01,2013-11-10 03:46:00,
2013-11-09 19:52:00,39.9,12.1,30.12,SE,133,0.0,0.0,32,0.00,,---,0.00,VWS V14.01,2013-11-10 03:52:00,
2013-11-09 19:57:00,39.9,12.1,30.12,SE,133,0.0,0.0,32,0.00,,---,0.00,VWS V14.01,2013-11-10 03:57:00,
2013-11-09 20:03:00,39.7,11.9,30.12,SE,133,0.0,0.0,32,0.00,,---,0.00,VWS V14.01,2013-11-10 04:03:00,
2013-11-09 20:08:00,39.0,12.5,30.12,SE,133,0.0,0.0,33,0.00,,---,0.00,VWS V14.01,2013-11-10 04:08:00,
2013-11-09 20:14:00,38.8,12.4,30.12,SE,133,0.0,0.0,33,0.00,,---,0.00,VWS V14.01,2013-11-10 04:14:00,
2013-11-09 20:19:00,38.7,12.2,30.12,SE,133,0.0,0.0,33,0.00,,---,0.00,VWS V14.01,2013-11-10 04:19:00,
2013-11-09 20:24:00,38.5,12.1,30.12,SE,133,0.0,0.0,33,0.00,,---,0.00,VWS V14.01,2013-11-10 04:24:00,
2013-11-09 20:30:00,38.3,11.9,30.12,SE,133,0.0,0.0,33,0.00,,---,0.00,VWS V14.01,2013-11-10 04:30:00,
2013-11-09 20:35:00,37.4,11.1,30.12,North,353,0.0,0.0,33,0.00,,---,0.00,VWS V14.01,2013-11-10 04:35:00,
2013-11-09 20:41:00,37.0,10.8,30.12,North,353,0.0,0.0,33,0.00,,---,0.00,VWS V14.01,2013-11-10 04:41:00,
2013-11-09 20:47:00,37.0,10.8,30.12,SSE,165,3.1,3.1,33,0.00,,---,0.00,VWS V14.01,2013-11-10 04:47:00,
2013-11-09 20:53:00,36.9,10.6,30.12,SSE,154,3.6,3.6,33,0.00,,---,0.00,VWS V14.01,2013-11-10 04:53:00,
2013-11-09 20:59:00,36.7,10.5,30.12,ESE,123,3.1,3.6,33,0.00,,---,0.00,VWS V14.01,2013-11-10 04:59:00,
2013-11-09 21:01:00,36.5,10.3,30.12,ESE,123,0.0,2.7,33,0.00,,---,0.00,VWS V14.01,2013-11-10 05:01:00,
2013-11-09 21:02:00,36.3,10.1,30.12,ESE,123,0.0,0.0,33,0.00,,---,0.00,VWS V14.01,2013-11-10 05:02:00,
2013-11-09 21:03:00,36.3,10.1,30.12,ESE,123,0.0,0.0,33,0.00,,---,0.00,VWS V14.01,2013-11-10 05:03:00,
2013-11-09 21:05:00,36.1,10.0,30.15,ESE,119,0.0,0.0,33,0.00,,---,0.00,VWS V14.01,2013-11-10 05:05:00,
2013-11-09 21:06:00,36.0,9.8,30.15,ESE,119,0.0,0.0,33,0.00,,---,0.00,VWS V14.01,2013-11-10 05:06:00,
2013-11-09 21:08:00,35.8,9.7,30.15,ESE,119,0.0,0.0,33,0.00,,---,0.00,VWS V14.01,2013-11-10 05:08:00,
2013-11-09 21:14:00,35.6,9.5,30.15,ESE,119,0.0,0.0,33,0.00,,---,0.00,VWS V14.01,2013-11-10 05:14:00,
2013-11-09 21:19:00,35.8,13.0,30.15,SSE,157,0.0,0.0,38,0.00,,---,0.00,VWS V14.01,2013-11-10 05:19:00,
2013-11-09 21:24:00,35.8,13.0,30.15,SSE,158,0.0,3.6,38,0.00,,---,0.00,VWS V14.01,2013-11-10 05:24:00,
2013-11-09 21:30:00,35.4,12.6,30.15,SSE,158,0.0,0.0,38,0.00,,---,0.00,VWS V14.01,2013-11-10 05:30:00,
2013-11-09 21:36:00,35.4,12.6,30.15,SSE,158,0.0,0.0,38,0.00,,---,0.00,VWS V14.01,2013-11-10 05:36:00,
2013-11-09 21:41:00,35.2,12.5,30.15,ENE,70,0.0,0.0,38,0.00,,---,0.00,VWS V14.01,2013-11-10 05:41:00,
2013-11-09 21:47:00,35.4,12.6,30.15,ENE,70,0.0,0.0,38,0.00,,---,0.00,VWS V14.01,2013-11-10 05:47:00,
2013-11-09 21:52:00,35.1,12.3,30.15,ENE,70,0.0,0.0,38,0.00,,---,0.00,VWS V14.01,2013-11-10 05:52:00,
2013-11-09 21:58:00,35.1,12.3,30.15,ENE,76,0.0,0.0,38,0.00,,---,0.00,VWS V14.01,2013-11-10 05:58:00,
2013-11-09 22:03:00,35.6,12.8,30.15,East,89,3.6,3.6,38,0.00,,---,0.00,VWS V14.01,2013-11-10 06:03:00,
2013-11-09 22:09:00,35.6,12.8,30.15,East,89,0.0,0.0,38,0.00,,---,0.00,VWS V14.01,2013-11-10 06:09:00,
2013-11-09 22:14:00,35.4,12.6,30.15,East,89,0.0,0.0,38,0.00,,---,0.00,VWS V14.01,2013-11-10 06:14:00,
2013-11-09 22:20:00,35.2,12.5,30.12,East,89,0.0,0.0,38,0.00,,---,0.00,VWS V14.01,2013-11-10 06:20:00,
2013-11-09 22:26:00,35.2,12.5,30.12,East,89,0.0,0.0,38,0.00,,---,0.00,VWS V14.01,2013-11-10 06:26:00,
2013-11-09 22:31:00,35.4,12.6,30.12,East,89,0.0,0.0,38,0.00,,---,0.00,VWS V14.01,2013-11-10 06:31:00,
2013-11-09 22:37:00,35.2,12.5,30.15,East,84,0.0,0.0,38,0.00,,---,0.00,VWS V14.01,2013-11-10 06:37:00,
2013-11-09 22:42:00,35.1,12.3,30.15,ENE,66,0.0,0.0,38,0.00,,---,0.00,VWS V14.01,2013-11-10 06:42:00,
2013-11-09 22:47:00,35.1,12.3,30.15,ENE,66,0.0,0.0,38,0.00,,---,0.00,VWS V14.01,2013-11-10 06:47:00,
2013-11-09 22:52:00,35.1,12.3,30.12,ENE,66,0.0,0.0,38,0.00,,---,0.00,VWS V14.01,2013-11-10 06:52:00,
2013-11-09 22:58:00,35.2,12.5,30.12,SSE,154,4.5,4.5,38,0.00,,---,0.00,VWS V14.01,2013-11-10 06:58:00,
2013-11-09 23:04:00,35.2,12.5,30.12,SSE,148,2.7,3.6,38,0.00,,---,0.00,VWS V14.01,2013-11-10 07:04:00,
2013-11-09 23:09:00,35.4,12.6,30.12,East,99,0.0,0.0,38,0.00,,---,0.00,VWS V14.01,2013-11-10 07:09:00,
2013-11-09 23:14:00,35.6,12.8,30.12,East,99,0.0,0.0,38,0.00,,---,0.00,VWS V14.01,2013-11-10 07:14:00,
2013-11-09 23:20:00,35.1,12.3,30.12,East,99,0.0,0.0,38,0.00,,---,0.00,VWS V14.01,2013-11-10 07:20:00,
2013-11-09 23:25:00,35.1,12.3,30.12,SSE,164,0.0,0.0,38,0.00,,---,0.00,VWS V14.01,2013-11-10 07:25:00,
2013-11-09 23:31:00,35.1,12.3,30.12,South,179,0.0,0.0,38,0.00,,---,0.00,VWS V14.01,2013-11-10 07:31:00,
2013-11-09 23:36:00,35.1,12.3,30.12,South,179,0.0,0.0,38,0.00,,---,0.00,VWS V14.01,2013-11-10 07:36:00,
2013-11-09 23:41:00,35.1,12.3,30.12,ENE,76,3.1,3.6,38,0.00,,---,0.00,VWS V14.01,2013-11-10 07:41:00,
2013-11-09 23:47:00,35.1,12.3,30.12,ENE,72,0.0,0.0,38,0.00,,---,0.00,VWS V14.01,2013-11-10 07:47:00,
2013-11-09 23:53:00,35.2,12.5,30.12,ESE,106,0.0,0.0,38,0.00,,---,0.00,VWS V14.01,2013-11-10 07:53:00,
2013-11-09 23:58:00,35.6,12.8,30.12,SSE,159,4.0,4.0,38,0.00,,---,0.00,VWS V14.01,2013-11-10 07:58:00,